Салтыковка

Россия / Московская область     55°45′45″N   37°55′20″E
В апреле 2022 года жителям России запретили посещать сайт meteo.paraplan.net по решению Генеральной прокуратуры. Аудитория сайта уменьшилась в 10 раз. Владельцы сайта не видят смысла в поддержке погодного сервера в таких условиях. Сайт будет закрыт в октябре.
темп.,
°C
ветер,
м/с
пор.,
м/с
влажн.,
%
обл.,
%
осадки,
мм/ч
давл.,
гПа
погр.,
м
30 сентября, пт
пт3000:00+8ю259091 0.0 1014106
03:00+8ю3790100 0.0 1015178
06:00+8ююв3891100 0.0 1015212
09:00+11ююв4979100 0.0 1015317
12:00+15ю4772100 0.0 1015627
15:00+17ю477190 0.1 10151013
18:00+14ю489152 0.3 1016392
21:00+12ю379758 0.3 1016228
1 октября, сб
сб100:00+12ю239593 0.0 101697
03:00+12ююз1196100 0.0 101727
06:00+12вюв1196100 0.0 101627
09:00+12юв1295100 0.1 1015120
12:00+14юв2389100 0.0 1014287
15:00+15юв248385 0.0 1012443
18:00+14вюв3791100 0.3 1010258
21:00+14юв41093100 0.6 1007293
2 октября, вс
вс200:00+13юз5109297 0.6 1006623
03:00+11юз61080100 0.7 10061019
06:00+10юз61183100 0.1 1006992
09:00+10зюз61184100 0.1 1007799
12:00+10зюз5980100 0.0 1008813
15:00+10зюз467799 0.0 1008792
18:00+10з247893 0.0 1008377
21:00+8ссв2287100 0.0 100775
3 октября, пн
пн300:00+9св4885100 0.0 1005323
03:00+8св61393100 5.4 1001576
06:00+11вюв61598100 7.3 997797
09:00+13вюв51397100 8.9 995838
12:00+14юв71692100 2.9 9941232
15:00+13ююв71394100 4.8 994764
18:00+10ю61088100 0.1 9971029
21:00+8ююз61086100 0.2 10011208
4 октября, вт
вт400:00+8ююз61086100 0.4 10031279
03:00+6ююз61089100 1.2 10051118
06:00+7ююз51086100 0.2 1007927
09:00+8ю5118316 0.2 1009613
12:00+12ююз6106757 0.1 10111250
15:00+12ю696713 0.6 10121126
18:00+11ю5107686 0.5 1014869
21:00+9ю41186100 0.8 1015612